Main page
Satellite images Climate Cyclones Lightning AirportsFAQ Languages Contact Newsletter About
Weather : Europe Africa North America South America Asia Australia-Oceania Others

4268, Kota Bharu, Sultan Ismail Petra Airport

48615

latitude: , longitude: Malaysia, elevation: 06-10N m


METAR: WMKC 241300Z 09007KT 060V140 9999 FEW010 SCT020 BKN280 27/23 Q1012